Location: Abundant Grace Fellowship
(35.0349°N, 90.0924°W)
Time: 14:05:48
(UTC+00:00)

Meteor 2-10 Rocket - Visible Passes

Search period start: 11 April 2026 00:00
Search period end: 21 April 2026 00:00
Orbit: 732 x 882 km, 81.2° (Epoch: 11 April)

Date Brightness Start Highest point End Pass type
(mag) Time Alt. Az. Time Alt. Az. Time Alt. Az.
11 Apr 5.1 10:39:04 10° N 10:43:46 39° ENE 10:48:33 10° SSE visible
12 Apr 6.9 01:21:55 10° WSW 01:24:45 14° WNW 01:27:32 10° NW visible
12 Apr 5.8 10:14:23 10° NNE 10:18:37 26° ENE 10:22:55 10° SE visible
13 Apr 6.6 00:55:34 10° WSW 00:59:31 21° WNW 01:03:24 10° NNW visible
13 Apr 6.4 09:49:58 10° NNE 09:53:25 18° ENE 09:56:53 10° ESE visible
14 Apr 6.7 09:26:13 10° NE 09:28:10 12° ENE 09:30:07 10° E visible
15 Apr 3.5 10:40:24 10° N 10:45:29 87° E 10:50:44 10° S visible
16 Apr 4.2 10:15:24 10° N 10:20:25 58° E 10:25:35 10° SSE visible
17 Apr 5.0 09:50:33 10° N 09:55:19 39° ENE 10:00:12 10° SE visible
18 Apr 5.6 09:25:53 10° NNE 09:30:10 26° ENE 09:34:33 10° SE visible
19 Apr 6.2 09:01:28 10° NNE 09:04:58 18° ENE 09:08:31 10° ESE visible
19 Apr 3.9 10:42:16 10° NNW 10:47:05 42° W 10:52:03 10° SSW visible
20 Apr 6.5 08:37:41 10° NE 08:39:43 12° ENE 08:41:46 10° E visible
20 Apr 3.5 10:17:00 10° NNW 10:22:05 64° W 10:27:21 10° S visible
